DL3CK-10 Weather Reports


time (UTC)temp
F
wind
direction
speed
knots
gust
knots
rain 1hr
in
rain 24hr
in
rain mn
in
humidity
%
barometer
mb
20260507062820 52 247 0.0 0.0 0.00 0.00 0.00 75 1009.2
20260507052820 50 225 0.0 0.0 0.00 0.00 0.00 78 1008.8
20260507042820 49 292 0.0 0.0 0.00 0.00 0.00 78 1008.0
20260507032820 48 292 0.0 0.0 0.00 0.00 0.00 78 1007.9
20260507022821 50 292 0.0 0.0 0.00 0.00 0.00 76 1007.6
20260507012821 50 292 0.0 0.0 0.00 0.00 0.00 76 1007.3
20260507002821 51 292 0.0 0.0 0.00 0.00 0.00 75 1007.0
20260506232821 53 292 0.0 0.0 0.00 0.00 0.00 74 1007.0
20260506222821 54 292 0.0 0.0 0.00 0.00 0.00 74 1006.9
20260506212821 54 292 0.0 0.0 0.00 0.00 0.00 74 1006.3
20260506202821 55 292 0.0 0.0 0.00 0.00 0.00 75 1005.8
20260506192821 56 270 0.0 0.0 0.00 0.00 0.00 73 1005.2
20260506151504 69 90 0.0 0.0 0.00 0.00 0.00 54 1001.6
20260506141504 73 90 0.0 0.0 0.00 0.00 0.00 46 1001.4
20260506131504 74 90 0.0 0.0 0.00 0.00 0.00 46 1001.7
20260506121504 74 90 0.0 0.0 0.00 0.00 0.00 49 1002.4
20260506111504 73 67 0.0 0.0 0.00 0.00 0.00 51 1003.0
20260506101504 69 315 0.0 0.0 0.00 0.00 0.00 56 1003.7
20260506091504 66 292 0.0 0.0 0.00 0.00 0.00 61 1003.8
20260506081505 62 270 0.0 0.0 0.00 0.00 0.00 67 1004.0